Home > Weather > Schaffhausen > Past weeks

Flag for Switzerland Past Weather in Schaffhausen, Schaffhausen, Switzerland — Yesterday and Last 2 Weeks

Now
74 °F

Mild.


Feels Like: 75 °F
Forecast: 57 / 79 °F
Wind: 6 mph from South

Location: Zurich-Kloten

Current Time: Jul 25, 2016 at 7:49:56 PM

Latest Report: Jul 25, 2016 at 7:00 PM


Visibility: N/A

Pressure: 30.05 "Hg

Humidity: 78%

Dew Point: 66 °F

Location of SchaffhausenLocation

Past Weather in Schaffhausen — Graph

°F

Schaffhausen Temperature Yesterday

Maximum temperature yesterday: 80 °F (at 4:00 PM)
Minimum temperature yesterday: 62 °F (at 4:00 AM)
Average temperature yesterday: 71 °F

High & Low Weather Summary for the Past Weeks

 TemperatureHumidityPressure
High90 °F (Jul 20, 4:00 PM)100% (Jul 16, 6:00 AM)30.38 "Hg (Jul 16, 6:00 AM)
Low44 °F (Jul 16, 5:00 AM)30% (Jul 20, 7:00 PM)29.82 "Hg (Jul 10, 7:00 PM)
Average67 °F75%30.08 "Hg
* Reported Jul 10 6:00 PM — Jul 25 6:00 PM, Schaffhausen, Weather by CustomWeather, © 2016

Note: Actual official high and low records may vary slightly from our data, if they occured in-between our weather recording intervals... More about our weather records

Advertising

Schaffhausen Weather History for the Previous 24 Hours

Scroll right to see more
 ConditionsComfort  
Time TempWeatherWind HumidityBarometerVisibility
6:00 PM
Mon, Jul 25
75 °FMild.5 mph70%30.04 "HgN/A
5:00 PM76 °FSprinkles. Overcast.8 mph73%30.04 "Hg10 mi
4:00 PM77 °FWarm.5 mph63%30.04 "HgN/A
3:00 PM80 °FWarm.5 mph51%30.03 "HgN/A
2:00 PM79 °FPartly sunny.5 mph56%30.04 "Hg16 mi
1:00 PM76 °FMild.3 mph59%30.06 "HgN/A
12:00 PM76 °FMild.3 mph64%30.06 "HgN/A
11:00 AM74 °FPartly sunny.3 mph69%30.08 "Hg12 mi
10:00 AM71 °FMild.3 mph77%30.09 "HgN/A
9:00 AM68 °FMild.1 mph85%30.11 "HgN/A
8:00 AM66 °FOvercast.1 mph90%30.11 "Hg11 mi
7:00 AM64 °FMild.1 mph95%30.11 "HgN/A
6:00 AM62 °FCool.1 mph95%30.11 "HgN/A
5:00 AM64 °FPassing clouds.1 mph93%30.11 "Hg12 mi
4:00 AM64 °FMild.5 mph93%30.11 "HgN/A
3:00 AM65 °FMild.2 mph92%30.11 "HgN/A
2:00 AM66 °FOvercast.2 mph89%30.11 "Hg19 mi
1:00 AM66 °FMild.2 mph89%30.11 "HgN/A
12:00 AM67 °FMild.7 mph89%30.11 "HgN/A
11:00 PM
Sun, Jul 24
69 °FPassing clouds.6 mph81%30.10 "Hg16 mi
10:00 PM70 °FMild.2 mph78%30.08 "HgN/A
9:00 PM72 °FMild.8 mph71%30.06 "HgN/A
8:00 PM74 °FScattered clouds.9 mph62%30.03 "Hg16 mi
7:00 PM77 °FMild.9 mph57%30.01 "HgN/A
Weather by CustomWeather, © 2016

See weather overviewHow to use our weather pages